GFSWCAN_prec_cthk_219.txt.gz
RH
51 47 48 43 46 54 59 62 59 60 61 52 52 52 54 72 81 94 97 95 98 97 95 98 98 97 99 98 97 97 99 98 99 99 99 98 98 97 98 92 91 97 97 95 98 99 94 69 76 73 67 64 61 59
63 56 46 46 60 75 77 77 73 72 76 71 63 56 55 65 76 89 92 91 96 98 95 96 97 97 98 98 99 97 97 96 98 98 98 98 98 98 97 97 93 98 92 96 95 90 81 77 73 72 73 70 65 63
68 68 53 55 57 81 86 87 78 78 88 92 74 62 57 67 73 77 83 87 96 97 95 96 93 92 96 97 99 98 97 98 98 98 97 98 99 97 98 96 96 89 88 96 97 84 85 81 81 80 79 77 75 70
66 73 73 59 57 67 83 94 92 94 96 97 87 73 66 70 78 82 83 80 89 97 97 88 89 89 86 90 97 98 98 98 98 99 99 99 98 98 97 97 94 89 90 86 92 86 86 88 85 82 83 79 76 71
63 74 80 81 67 60 77 85 98 98 97 95 94 85 72 81 87 88 85 78 80 78 86 86 85 88 90 87 95 98 98 97 98 98 98 97 98 98 98 98 94 82 87 93 92 86 88 81 83 85 81 78 76 76
64 71 77 80 86 77 64 78 85 93 97 96 98 92 84 93 96 94 94 92 86 85 84 80 87 88 84 95 93 93 97 98 98 98 97 97 96 98 98 97 79 79 82 83 85 84 86 87 85 77 81 84 84 81
74 77 78 84 89 94 80 72 77 89 98 97 97 91 88 93 90 98 98 76 80 93 88 79 75 81 85 93 95 95 97 97 98 98 98 96 95 97 98 95 67 76 79 82 86 88 90 89 89 90 92 92 92 91
75 73 75 80 88 97 95 80 75 98 95 95 93 92 95 92 99 99 89 81 84 98 93 89 81 80 83 81 82 85 93 97 98 98 97 97 98 98 96 73 71 72 75 80 83 87 91 91 93 95 94 95 95 95
71 66 59 64 86 98 97 90 75 86 93 91 93 93 98 99 98 90 79 91 97 94 89 92 80 85 94 89 91 90 95 95 96 96 95 96 96 96 81 75 76 77 78 81 85 91 92 94 95 96 96 97 91 87
70 61 52 58 77 87 86 74 77 84 90 94 96 95 98 96 89 85 96 96 97 96 98 95 93 93 93 93 98 97 98 98 96 83 87 88 79 58 58 62 69 74 76 84 93 96 98 96 95 94 94 93 84 79
76 66 58 60 61 59 63 70 72 82 90 97 95 90 83 84 88 90 96 98 98 98 98 97 93 93 94 94 95 93 95 94 89 75 80 77 59 43 47 53 59 71 79 84 90 93 90 86 86 85 82 79 78 65
83 75 65 58 61 63 66 72 80 87 87 80 71 76 83 83 94 98 98 98 92 93 88 86 91 95 94 87 84 86 88 87 81 78 80 70 46 44 57 67 75 84 86 89 92 89 86 84 81 77 74 62 55 53
88 86 80 66 64 66 73 78 83 79 72 64 65 75 81 89 97 93 87 85 77 73 73 71 77 82 85 87 93 93 94 89 85 89 75 58 56 68 79 81 83 86 94 92 90 87 81 74 63 57 53 52 52 48
92 91 84 83 80 78 80 79 76 71 68 63 66 75 74 78 73 75 71 69 69 73 76 80 86 91 94 97 98 96 93 92 90 81 71 68 74 81 84 89 89 91 89 89 84 72 64 63 59 57 53 45 44 43
76 88 90 95 92 89 86 85 82 78 70 69 68 75 80 76 76 71 70 75 79 82 84 88 91 91 95 98 96 95 97 95 87 78 76 74 78 85 89 91 88 89 87 82 69 60 59 57 51 46 46 45 43 42
67 70 74 73 71 77 84 86 80 76 75 75 75 77 79 79 78 78 80 84 85 87 91 93 97 97 93 94 96 91 91 80 77 76 76 77 81 90 89 85 80 74 66 59 54 50 49 50 50 47 46 45 44 44
47 57 62 61 61 66 68 68 62 60 61 65 71 72 77 80 79 82 90 95 95 92 95 96 96 90 91 93 90 83 82 80 79 73 69 64 62 63 60 56 57 56 55 56 56 54 51 49 48 48 50 52 54 55
35 38 46 48 51 59 60 61 60 65 70 71 73 74 77 77 72 73 74 81 88 90 91 89 82 80 79 74 61 54 66 55 57 57 62 64 61 63 64 62 60 60 59 58 54 50 47 46 47 48 48 46 44 44
26 28 33 35 42 45 45 48 53 63 68 71 73 76 76 77 76 75 75 80 83 85 82 81 75 75 60 48 47 46 46 51 57 59 63 65 64 59 58 58 58 55 51 49 47 47 48 46 43 45 49 49 46 43
21 22 24 30 30 29 30 33 33 39 50 56 66 70 75 76 76 78 79 79 77 74 75 72 61 51 50 47 45 46 48 52 53 54 55 54 54 54 51 49 47 45 45 47 51 55 58 58 56 51 42 37 34 31
27 20 20 25 28 29 30 33 35 39 45 53 61 62 66 68 61 60 60 59 61 56 52 48 44 46 46 44 43 43 43 43 42 39 41 45 45 46 46 45 50 57 62 66 66 61 56 44 34 30 27 26 30 33
36 29 25 24 27 29 31 33 34 41 45 48 55 53 52 52 49 47 48 47 44 41 41 41 37 39 43 41 40 42 41 41 44 47 43 40 45 53 61 67 71 72 70 63 54 45 36 30 28 27 29 33 32 33
43 35 35 30 26 28 37 37 39 39 45 48 48 49 48 43 39 39 41 37 32 29 30 34 38 41 43 43 41 41 45 48 47 48 54 60 68 74 75 73 70 63 55 45 38 34 33 30 29 30 31 30 31 39
58 47 39 37 36 42 44 42 40 39 42 45 45 43 42 44 46 48 47 41 35 34 35 38 42 44 44 43 45 49 54 58 60 65 68 72 73 73 69 62 53 45 40 36 35 36 33 30 30 32 33 36 41 45
66 65 59 53 45 50 52 52 50 44 45 44 44 46 49 47 50 50 44 36 36 37 41 45 48 49 51 57 59 61 63 63 66 70 72 70 67 63 57 48 43 39 35 35 37 36 33 28 31 35 36 40 45 50
69 69 67 65 62 56 57 60 57 53 53 51 49 51 54 56 56 54 50 48 51 53 54 57 61 65 66 64 60 60 64 72 73 72 69 65 62 55 46 42 36 32 34 36 37 35 29 29 34 37 40 43 49 53
60 66 71 69 67 68 69 65 62 60 58 57 59 59 58 59 59 53 52 56 57 57 62 67 67 63 61 58 59 67 70 70 69 69 66 64 57 49 44 35 30 32 35 36 35 33 30 31 35 42 44 47 52 58
57 57 67 69 73 71 74 72 70 65 61 57 59 59 56 54 49 52 61 65 66 61 60 61 58 55 57 62 64 64 67 69 69 68 65 59 53 47 37 32 30 32 34 33 32 32 32 32 36 43 48 52 56 61
61 61 64 71 75 75 75 74 73 68 64 62 63 60 58 54 60 67 65 64 65 63 58 55 57 60 63 65 67 67 66 66 67 66 62 55 48 41 37 34 33 34 36 35 35 35 36 36 39 43 50 55 59 64
64 65 71 71 75 74 68 66 67 71 69 67 64 68 73 73 73 72 66 60 61 64 61 57 57 60 60 61 63 65 65 66 67 66 59 49 42 39 36 35 36 39 40 39 40 40 38 38 40 45 52 58 62 67
63 69 75 75 75 73 74 70 68 69 73 74 77 77 80 78 75 74 74 69 65 62 61 61 62 62 62 62 62 63 64 66 66 63 54 45 41 39 37 37 39 42 42 43 44 43 39 39 42 47 55 60 64 67
71 73 78 84 83 79 82 83 78 73 69 68 70 75 78 79 78 72 72 75 73 68 64 62 62 62 65 68 69 69 67 67 66 62 48 43 40 37 35 37 40 43 44 44 45 44 41 43 45 50 57 63 70 72
81 82 80 78 81 84 86 88 89 89 85 79 74 72 73 73 69 64 64 66 69 70 69 71 71 71 71 71 72 72 69 63 59 50 46 43 39 35 36 38 40 43 44 45 45 45 43 47 51 51 55 62 70 75

GFSWCAN_prec_cthk_222.txt.gz
RH
56 54 46 38 35 35 35 36 37 38 36 36 38 44 46 45 55 78 88 93 97 97 97 98 98 98 97 98 98 98 95 98 95 99 98 98 98 95 97 88 87 94 98 94 97 99 95 72 75 78 71 71 70 69
52 56 57 51 44 37 35 35 40 40 45 50 44 47 54 54 49 64 79 90 94 97 95 96 95 96 98 98 98 99 98 96 97 99 98 97 99 98 94 96 93 99 89 94 95 90 79 74 75 77 76 75 74 74
45 48 54 56 55 47 43 44 52 55 59 59 62 62 61 69 60 62 72 85 93 97 96 97 91 92 96 98 98 98 98 99 98 98 98 98 99 97 97 95 95 93 91 95 94 78 82 81 82 82 83 80 81 80
47 49 51 55 58 56 48 48 60 65 72 75 70 76 74 76 80 74 79 74 85 94 98 90 89 88 88 95 98 98 98 99 98 99 98 98 98 98 98 97 96 89 90 87 93 83 84 83 85 87 88 85 86 84
58 59 58 56 57 61 59 56 62 74 79 80 80 82 83 86 93 95 85 76 77 84 95 95 88 83 81 84 92 97 98 98 97 98 98 98 98 98 98 98 95 87 89 95 93 88 88 83 87 86 85 86 84 84
57 61 62 62 60 65 69 63 69 80 87 92 95 91 90 95 97 99 97 89 81 85 90 92 86 77 75 82 88 94 98 98 97 98 98 98 98 97 97 97 83 82 85 88 92 91 89 80 78 84 85 86 84 80
63 63 63 65 68 72 78 79 76 86 90 97 98 98 98 98 98 99 98 74 80 92 91 88 76 73 84 87 90 94 96 96 97 98 97 97 97 98 98 95 68 72 74 80 88 88 84 79 78 77 82 86 87 87
63 53 49 56 68 84 94 89 83 90 97 98 97 99 98 98 99 99 91 84 93 98 98 95 75 66 79 82 85 87 91 93 97 98 98 97 98 98 97 78 67 68 71 75 77 79 79 78 83 85 84 86 90 95
56 51 45 56 71 88 94 82 87 92 98 98 99 99 99 98 98 99 91 97 97 98 91 79 75 74 75 78 85 87 90 91 95 97 98 98 98 95 77 73 67 67 74 72 75 78 78 80 87 90 94 98 99 98
58 54 49 54 68 80 85 82 98 91 97 98 99 99 99 98 97 97 99 99 99 97 85 80 83 83 78 78 92 94 94 96 93 90 94 98 91 65 54 54 55 58 61 69 74 80 81 86 90 95 97 97 97 93
57 57 56 60 69 77 77 81 90 97 95 96 95 95 92 93 97 99 98 97 93 83 76 79 82 87 92 94 93 97 97 97 96 88 94 88 68 43 42 43 43 44 47 55 66 75 82 90 95 97 96 95 95 91
67 64 63 59 60 63 68 77 83 85 84 86 86 91 90 97 97 96 96 91 83 83 85 84 80 86 91 97 98 97 97 95 91 83 84 72 46 41 43 45 52 58 62 65 72 83 88 92 93 94 96 92 86 82
82 72 69 69 65 64 64 76 82 80 79 80 88 95 95 91 88 81 83 81 84 81 93 96 97 98 98 98 97 94 93 89 84 85 72 51 51 52 55 61 65 73 80 85 88 90 91 91 91 91 87 80 72 64
93 91 86 85 87 86 86 86 85 84 77 78 85 81 74 75 73 79 80 81 83 85 88 90 95 93 91 93 90 91 92 92 90 82 68 61 62 69 76 80 80 88 96 98 98 96 93 88 82 76 72 71 67 61
84 92 92 90 86 87 88 84 76 71 65 63 60 68 75 75 73 74 73 78 81 85 87 91 93 89 93 96 94 90 90 88 82 78 73 73 75 75 81 89 93 95 92 96 95 90 83 77 75 72 69 65 59 53
78 78 84 81 86 88 88 86 82 76 73 71 67 68 70 72 74 74 73 76 81 84 89 92 96 96 94 95 93 92 92 87 79 76 76 75 78 80 90 95 97 97 92 93 83 72 67 67 65 61 56 53 50 49
55 66 66 66 68 74 80 75 66 64 64 68 72 72 76 78 78 82 84 83 83 85 89 89 91 88 92 96 94 89 86 80 80 81 76 76 68 64 69 71 74 75 73 68 64 59 59 60 58 56 54 52 52 53
38 42 56 61 60 63 66 65 64 63 66 63 61 63 71 72 74 75 77 82 87 97 96 93 90 92 90 85 81 64 54 70 65 57 59 59 60 65 66 64 63 61 58 59 62 63 64 60 55 50 49 48 46 43
30 34 37 43 52 58 60 59 60 62 64 65 64 69 73 75 74 73 75 79 84 85 93 92 86 85 79 73 58 48 44 46 54 59 62 62 60 59 60 60 60 60 60 61 58 53 48 46 46 46 47 50 51 47
22 27 28 34 41 44 42 43 42 47 50 52 58 69 77 78 78 77 78 81 86 84 79 78 74 65 54 50 46 42 42 49 52 57 58 59 59 60 58 57 56 54 51 49 49 51 56 63 66 60 49 37 28 23
31 25 24 29 33 33 34 36 35 37 43 52 57 62 67 74 77 77 80 79 76 70 64 65 63 49 43 41 40 40 41 42 43 43 44 47 50 51 50 50 51 53 58 63 69 72 68 56 41 30 24 24 29 32
39 36 32 29 29 28 29 31 33 38 46 54 64 65 68 68 65 65 68 62 57 50 50 42 40 40 39 39 39 41 43 45 45 43 46 47 41 46 53 60 68 72 74 72 66 56 43 32 27 25 28 30 30 31
46 44 41 39 31 29 34 35 37 40 47 53 59 59 58 55 49 48 49 42 37 34 33 33 35 36 38 40 42 44 45 44 47 52 54 54 57 65 72 75 76 71 66 57 46 37 30 29 28 29 30 29 32 37
59 57 46 43 41 43 42 43 40 41 45 48 51 49 47 47 44 43 39 35 28 27 28 31 34 38 42 44 45 45 47 53 57 60 62 68 74 78 77 73 68 59 48 42 36 32 32 31 31 32 32 32 36 39
58 66 62 55 50 55 57 53 48 42 43 44 43 44 46 46 46 46 41 34 33 33 33 35 37 42 45 49 52 55 58 63 67 67 68 72 72 69 65 60 53 46 41 37 33 34 35 32 32 34 34 34 38 42
57 57 64 68 65 61 60 62 59 53 48 47 44 45 47 48 49 45 39 33 39 40 42 44 48 55 59 60 64 63 60 63 65 67 70 68 64 62 57 48 43 42 37 35 36 36 35 32 34 37 36 38 42 47
58 55 59 66 69 68 71 68 63 61 60 54 54 53 50 51 50 44 41 46 50 51 55 57 57 62 67 68 64 60 61 68 71 69 66 66 66 60 48 43 40 38 35 35 36 37 35 33 36 39 40 41 44 49
55 51 58 63 72 74 76 75 73 68 63 61 62 58 52 50 45 41 48 55 60 58 60 66 71 71 64 60 57 62 67 69 68 67 67 67 62 54 48 41 37 36 35 35 35 35 34 34 36 39 41 44 48 52
58 55 55 64 66 73 77 74 72 69 66 64 64 60 54 47 47 52 59 67 67 63 61 62 58 56 57 60 61 61 61 62 63 65 66 63 56 48 43 41 38 34 35 36 37 37 36 36 37 38 41 46 50 54
61 59 62 66 69 68 69 70 71 70 70 70 67 63 60 57 56 61 65 68 69 63 58 56 56 59 58 58 57 58 58 60 62 63 64 60 50 44 42 41 38 37 38 38 39 38 40 38 38 39 43 48 53 57
62 66 68 67 68 67 67 71 72 73 73 71 70 70 70 72 70 73 69 64 68 72 71 65 62 62 60 60 60 60 60 61 63 64 63 54 44 43 42 40 37 38 40 40 41 40 39 38 38 40 45 51 55 60
65 69 72 74 73 71 72 72 74 76 74 74 75 76 79 82 81 75 72 68 67 69 69 67 63 60 63 67 68 68 64 64 64 64 59 48 44 44 41 37 36 38 39 39 39 40 39 39 42 43 47 54 59 64
76 76 76 78 81 80 79 77 76 79 81 78 73 72 72 75 78 75 73 70 69 71 68 67 69 70 70 71 71 70 69 69 67 63 53 47 45 42 37 33 36 37 37 38 40 41 40 42 45 48 48 53 60 66

GFSWCAN_prec_cthk_225.txt.gz
RH
53 55 57 58 50 45 40 35 34 34 35 38 40 43 43 41 45 56 65 79 89 90 90 93 92 92 93 94 94 97 97 93 95 99 98 98 97 94 91 76 83 93 97 94 96 98 94 67 77 77 68 67 67 67
50 46 44 45 51 45 42 40 37 33 36 36 38 38 40 51 55 59 55 61 77 88 88 88 88 90 97 96 96 96 97 95 99 99 98 98 99 98 93 95 86 96 85 89 92 89 83 81 77 75 74 73 73 71
52 61 58 46 44 48 43 39 37 36 39 39 39 40 41 46 53 66 63 55 64 82 88 87 78 85 88 93 96 99 95 97 99 99 99 99 99 98 97 95 89 89 88 89 93 88 85 83 84 83 82 78 78 75
48 60 64 62 55 48 49 46 42 41 42 42 44 47 49 52 56 65 64 61 63 67 89 83 78 82 83 87 92 96 98 98 98 99 99 98 98 97 98 98 95 89 89 82 91 85 85 84 87 88 88 88 86 87
51 53 54 56 56 55 53 52 47 45 47 52 55 57 57 61 69 77 74 68 69 72 76 76 82 82 82 84 86 89 94 98 97 98 98 98 97 98 98 98 97 88 88 93 93 88 89 87 87 89 90 92 91 87
55 53 51 48 50 51 51 54 52 50 52 59 59 63 61 71 78 87 88 86 82 88 86 70 66 67 72 81 87 90 90 95 97 98 98 98 97 98 97 96 85 82 88 93 96 96 95 94 91 86 82 78 78 81
58 51 45 44 44 49 54 55 57 58 64 66 69 70 71 81 88 93 93 77 88 93 92 90 81 67 69 71 74 79 88 94 92 96 97 97 96 98 98 96 70 76 78 79 83 86 87 85 81 77 78 80 80 80
48 42 38 43 50 54 60 64 65 69 79 80 82 80 81 91 95 98 96 92 94 97 98 95 80 67 66 65 69 75 82 88 94 96 97 97 98 98 98 77 67 70 70 75 79 83 84 78 74 73 74 77 79 81
50 47 47 49 53 60 63 68 74 86 93 96 93 90 98 99 99 95 98 98 98 98 91 81 71 69 70 71 74 80 82 84 89 94 93 96 97 94 76 70 63 64 74 75 77 78 78 77 75 74 79 85 88 90
53 53 57 55 59 62 66 76 83 90 98 91 95 97 99 99 98 96 99 98 99 96 88 76 70 68 71 77 80 81 88 93 92 88 91 92 83 65 59 67 69 67 67 70 71 66 70 71 73 84 87 90 93 93
56 60 64 57 52 59 70 84 89 97 99 93 90 93 91 97 98 98 98 97 97 89 87 81 74 74 84 90 90 89 96 96 96 90 93 82 63 50 56 52 51 50 50 52 53 54 57 64 74 86 91 95 95 97
61 60 62 62 61 64 77 83 89 91 86 81 94 91 90 97 97 97 97 97 87 82 79 70 71 81 88 94 97 98 97 96 94 87 88 73 51 50 49 47 43 44 46 48 52 56 62 73 81 89 94 95 97 98
70 66 65 65 67 70 77 82 81 87 91 89 87 88 88 91 91 81 78 75 77 72 72 76 86 88 91 96 96 96 97 93 91 88 71 55 56 50 49 49 48 48 52 60 70 75 81 85 91 95 98 98 97 92
89 80 75 72 77 76 77 79 78 80 81 84 87 90 83 82 79 78 72 71 70 73 82 85 95 97 94 95 94 94 91 91 88 79 62 60 58 62 64 66 68 75 80 84 90 93 94 94 94 94 92 90 86 81
91 91 89 86 87 87 84 80 76 75 72 71 70 73 73 72 72 74 77 81 82 81 81 86 89 89 92 93 89 88 89 83 75 70 74 74 71 73 75 79 87 93 96 96 95 92 91 90 89 87 86 85 82 78
81 90 94 92 92 92 90 83 75 73 71 67 63 67 73 78 81 78 76 76 78 79 83 83 89 92 89 90 89 89 87 80 78 81 78 76 79 80 83 91 97 97 97 98 98 90 83 80 80 79 76 67 61 60
56 70 74 74 79 89 90 90 84 79 71 74 76 72 73 69 68 70 70 70 75 78 87 89 91 89 92 93 91 88 88 74 80 83 82 81 78 79 80 86 94 96 91 88 82 76 71 66 64 62 60 57 52 49
37 45 51 58 62 66 72 79 74 64 66 68 68 68 73 74 76 75 76 75 79 83 90 96 89 90 89 86 86 79 76 64 71 77 68 64 60 63 69 72 73 74 70 66 61 60 60 59 56 50 48 46 45 45
27 32 35 44 49 58 63 63 62 62 61 64 65 67 72 74 78 78 78 79 83 86 93 97 94 92 87 82 77 76 69 54 54 58 59 60 60 61 59 58 57 59 60 61 60 56 52 48 45 47 53 59 56 49
23 25 30 33 41 46 48 46 46 49 53 51 49 54 66 73 77 81 81 83 84 87 88 89 83 78 73 72 65 55 47 49 52 55 57 57 57 57 58 59 57 56 56 54 48 49 57 65 69 64 51 36 26 27
37 35 27 28 38 43 41 40 39 39 37 39 44 50 58 71 78 81 83 85 85 81 78 74 72 70 62 52 48 42 41 43 42 42 47 49 50 54 54 55 54 55 59 64 70 73 71 61 47 33 25 25 27 29
48 47 45 37 32 36 37 38 38 39 40 43 54 60 65 65 71 78 83 81 72 63 58 58 58 55 49 41 39 39 39 41 44 41 42 43 47 47 49 58 67 72 74 74 70 62 50 38 28 25 27 28 29 31
45 52 53 52 44 33 35 36 40 40 42 48 56 59 59 63 62 62 59 51 46 45 47 46 40 37 38 39 39 41 44 45 44 43 45 51 58 60 66 71 74 73 70 65 55 45 36 29 27 28 31 32 34 38
42 51 59 55 51 48 42 43 43 46 48 49 51 53 50 49 49 49 44 34 29 28 29 31 33 34 36 39 40 42 45 46 47 51 59 63 66 71 74 75 73 70 61 50 43 37 32 31 31 33 35 35 37 40
46 50 52 58 61 61 60 56 51 46 47 45 46 47 48 48 47 43 36 30 26 26 27 29 32 33 34 37 42 47 52 57 60 66 69 68 67 71 73 71 66 56 48 43 38 35 34 34 34 38 38 37 39 41
49 49 49 52 62 69 69 67 61 55 51 49 46 46 47 47 45 39 33 27 27 29 31 32 33 37 45 52 58 59 61 64 64 66 67 67 67 65 63 60 51 46 44 41 38 36 37 37 38 40 39 39 40 42
53 50 49 49 53 65 76 75 69 64 62 55 53 51 49 48 42 33 29 31 35 38 45 47 50 52 56 59 61 63 61 56 60 63 64 64 62 60 56 46 42 41 39 38 37 37 39 38 38 40 38 39 41 44
49 48 52 53 55 58 71 77 77 72 66 62 63 62 54 47 40 37 42 46 51 55 57 59 59 62 65 67 65 59 57 61 65 65 63 63 63 60 51 44 39 38 38 38 36 35 35 35 37 37 39 40 43 46
56 51 50 58 59 61 63 71 74 74 69 69 70 66 61 53 45 45 49 55 59 62 64 65 67 69 68 65 59 60 62 62 62 62 63 63 62 55 48 42 40 39 36 34 34 35 33 33 35 37 38 41 45 49
57 56 57 59 59 58 58 59 65 70 73 70 70 69 64 59 52 51 54 60 65 65 68 68 65 64 62 60 61 62 62 61 62 63 63 64 59 50 44 43 41 38 35 35 35 34 36 36 36 37 38 42 48 52
59 62 64 63 63 60 61 65 66 68 72 74 73 74 73 69 62 61 63 65 72 69 69 66 63 65 63 62 60 59 59 60 61 62 64 62 53 46 44 43 40 37 35 35 33 35 35 35 36 37 40 44 50 54
62 64 67 70 69 66 67 70 72 70 71 74 77 77 74 74 74 72 72 68 71 74 72 68 65 67 68 67 66 66 64 64 64 65 65 56 47 45 44 41 37 36 37 35 35 35 35 35 36 39 42 47 53 58
73 73 74 75 75 75 75 73 73 75 74 75 77 79 80 78 78 77 78 75 69 69 71 72 71 72 73 75 74 72 69 68 69 68 64 53 48 46 42 37 35 37 35 35 36 35 37 37 40 43 45 47 52 60

GFSWCAN_prec_cthk_231.txt.gz
RH
57 50 51 59 58 61 70 78 80 79 82 87 90 85 89 93 97 97 98 98 98 96 98 98 98 99 98 96 97 97 98 98 98 99 99 98 98 90 85 74 76 94 96 91 95 99 81 51 54 65 48 55 57 55
53 58 54 59 59 52 55 65 75 77 75 77 76 77 81 81 91 96 97 96 98 99 97 98 98 98 98 98 98 98 99 96 97 97 96 96 98 94 78 78 75 87 89 88 83 70 54 55 61 64 62 66 65 63
47 61 64 61 59 55 53 49 65 76 76 70 73 72 78 80 82 86 91 94 97 98 97 94 95 96 97 98 98 98 98 98 99 98 96 97 99 93 94 78 83 74 79 87 86 69 69 65 67 68 72 71 68 73
44 52 61 59 56 53 50 49 49 58 66 66 62 64 71 76 81 85 87 89 90 90 90 93 86 88 90 94 97 97 98 98 98 99 98 98 96 97 98 95 94 87 92 85 82 84 84 79 83 82 86 86 85 84
45 41 53 56 54 52 50 47 45 47 48 50 55 61 63 68 74 77 81 85 83 80 89 88 81 77 74 79 86 95 97 98 98 98 98 97 94 97 96 96 84 71 89 97 95 97 98 96 94 93 92 92 92 91
42 35 39 49 52 51 51 49 49 41 37 36 39 44 49 53 61 64 69 72 79 75 77 78 79 76 75 72 73 77 79 88 91 97 96 96 94 97 97 91 63 65 72 77 84 86 86 85 88 86 88 93 90 90
49 39 36 41 49 53 53 51 50 50 48 47 45 46 49 53 52 57 60 56 58 65 71 73 74 65 62 63 65 68 74 78 79 80 80 78 85 95 95 84 55 66 71 72 77 88 78 72 75 80 87 86 85 84
52 49 49 45 45 47 49 49 52 54 52 54 55 60 63 64 65 66 63 56 67 70 66 65 67 59 59 57 60 62 65 68 69 70 66 62 67 81 83 54 59 59 68 72 72 86 74 64 72 72 75 77 77 78
50 51 50 53 55 53 50 51 52 55 57 62 66 69 71 72 70 69 75 73 81 80 75 64 63 68 64 62 64 65 66 68 65 62 60 61 59 68 46 48 51 52 61 68 69 74 65 62 65 74 78 82 83 83
50 49 49 52 56 58 60 64 67 67 68 70 70 74 75 76 78 77 88 89 90 88 79 69 69 72 63 67 65 63 65 66 66 55 63 70 55 46 56 55 55 52 58 64 66 73 74 72 73 74 73 76 81 80
59 57 58 56 58 64 68 73 75 78 80 84 83 81 85 82 90 96 97 97 97 92 74 73 75 76 66 66 69 66 73 72 74 69 76 72 55 68 66 61 54 51 56 60 64 71 72 68 72 74 75 76 74 74
68 66 67 68 69 74 78 82 86 89 91 89 83 88 96 96 97 97 97 92 84 71 76 80 83 82 82 77 75 78 72 69 67 70 75 61 61 66 63 57 56 57 56 56 56 61 63 62 63 63 66 70 74 77
70 70 69 71 72 78 86 90 91 88 93 97 96 95 97 92 94 89 90 82 77 69 70 75 77 74 75 75 80 77 76 73 72 76 66 55 67 61 58 56 56 56 55 57 58 59 61 62 63 68 73 77 81 84
72 73 71 70 73 78 85 86 84 81 84 86 81 80 82 81 78 75 75 77 74 71 72 72 73 67 70 73 78 87 78 79 77 71 58 60 70 62 58 54 57 65 68 72 78 82 83 80 83 85 88 94 97 96
70 76 77 72 70 68 67 72 76 78 76 75 75 81 70 71 68 73 72 68 68 67 66 75 72 73 78 90 86 88 90 81 66 61 68 74 61 63 67 74 76 76 80 85 91 94 96 96 96 95 95 94 92 90
76 74 80 79 74 71 69 69 70 72 72 74 69 72 69 71 70 68 71 71 69 70 77 81 84 89 86 86 84 81 73 62 62 68 73 72 70 70 78 79 82 87 94 95 93 90 84 81 81 81 79 78 77 75
77 79 78 81 80 78 73 72 70 66 66 67 70 65 66 65 66 66 70 75 78 86 86 84 81 77 80 83 76 68 68 71 83 78 74 72 68 74 73 72 81 87 85 85 82 79 75 70 67 64 61 56 52 48
56 62 66 70 76 80 80 77 76 67 63 62 61 58 54 56 58 60 64 70 73 76 77 79 76 77 77 70 69 75 78 77 73 73 75 76 60 53 55 64 74 78 77 69 63 60 58 54 53 50 49 49 51 56
48 44 38 43 48 54 63 69 75 71 67 70 68 63 60 59 58 60 66 71 73 72 76 78 76 72 75 75 78 78 76 76 78 76 67 51 47 50 56 60 62 62 57 55 56 56 56 56 57 60 63 65 64 55
32 40 41 34 34 45 47 56 58 65 67 71 64 65 62 62 64 63 70 74 78 78 78 75 70 72 72 73 76 81 86 79 61 50 48 48 47 50 52 53 55 56 56 57 60 64 64 63 65 65 57 46 39 38
35 38 39 47 44 41 45 43 42 42 46 48 52 54 56 53 56 58 61 66 72 73 73 73 69 78 68 62 56 63 62 47 47 45 45 44 46 49 50 52 53 56 60 66 67 68 68 67 61 52 42 36 33 34
46 37 45 48 59 58 43 42 44 47 41 45 44 41 37 44 52 59 60 61 64 65 71 73 74 75 66 59 51 50 46 41 41 40 42 43 43 43 46 52 57 61 65 68 69 68 66 60 50 41 37 35 35 36
43 39 45 51 56 61 57 43 39 40 43 45 40 38 40 48 65 71 68 55 54 61 66 71 71 64 56 52 53 47 39 40 43 44 44 44 45 51 57 61 61 64 66 67 67 66 61 47 36 38 36 40 43 41
46 47 44 48 47 60 68 60 47 39 40 45 44 43 41 47 55 58 50 46 52 59 63 66 59 50 50 51 53 50 44 44 45 45 48 54 55 58 61 61 62 65 67 68 66 59 50 43 36 38 36 37 36 40
51 41 43 44 46 53 59 73 64 53 52 44 41 44 47 47 49 44 41 37 40 44 44 39 39 43 46 48 46 42 42 46 50 53 56 59 60 62 62 62 64 66 67 65 58 50 45 40 38 36 35 37 37 36
47 42 44 44 45 46 47 56 73 71 61 55 47 48 48 47 46 40 30 30 32 33 31 32 34 39 41 42 46 46 46 53 57 59 61 63 63 65 66 65 66 67 65 58 51 46 41 38 36 35 33 33 33 35
49 45 42 42 44 42 49 54 64 76 77 67 60 56 49 45 38 33 33 28 31 31 33 30 32 35 39 44 46 49 50 57 60 61 65 65 66 68 69 67 67 63 55 49 46 42 38 36 35 36 35 34 34 36
49 45 46 44 46 45 51 53 56 62 73 69 70 64 56 47 41 36 32 29 30 32 33 36 43 48 50 50 48 49 52 57 61 63 64 65 68 69 66 61 60 51 45 44 41 38 35 36 37 35 33 32 35 38
53 47 45 50 50 49 51 52 52 53 55 67 77 70 65 54 49 44 36 33 38 42 47 51 53 54 55 55 57 59 61 61 60 59 61 65 64 63 59 57 51 44 41 37 32 29 34 33 33 33 30 32 36 41
56 49 51 53 53 49 49 47 52 53 51 56 66 73 69 67 61 52 49 47 46 50 53 57 61 62 62 63 65 65 64 62 59 63 65 64 64 60 60 55 45 42 39 32 29 28 27 27 28 28 30 33 38 43
65 60 58 52 52 52 56 51 48 51 53 55 57 67 79 78 68 63 60 59 54 52 56 62 67 69 71 71 70 68 65 66 66 63 59 59 59 60 58 48 44 44 35 32 30 30 30 30 29 30 32 35 40 45
62 63 60 60 62 56 52 54 55 56 57 57 61 62 66 79 80 75 66 62 61 57 59 66 72 74 75 75 76 72 68 67 65 62 60 59 60 58 49 46 44 39 39 37 33 32 30 29 30 31 34 38 42 46
62 64 63 64 66 62 62 62 60 61 61 61 62 63 66 69 79 81 74 71 67 65 68 70 74 78 77 76 72 72 73 72 71 67 64 63 60 50 48 46 40 37 36 34 32 30 29 30 32 34 36 36 39 44